SL-14 R/B, 22784

Orbit data source: Space-Track

SL-14 R/B, 22784 is space debris in LEO originally from a launch on Tue, 31 Aug 1993 UTC launched from the Plesetsk Missile And Space Complex (PKMTR). Debris objects in space refer to the collection of defunct objects orbiting the Earth. Examples of debris include non-operational satellites, rocket bodies, and fragments generated from explosions, collisions, or faulty payload assembly.

Loading next visibility...
Identifier
22784, 1993-055C
Orbit
LEO
Country
Flag of CISCIS
Related business
Manufacturer
Yuzhnoe
Mission
Spacecraft
Bus & Motor
S5M, Unknown motor
Mass
1,600 kg wet, 1,600 kg dry
Launch date (UTC)
1993-08-31 (32 years ago)
Launch vehicle
Unknown
Launch site
Plesetsk Missile And Space Complex (PKMTR)
Object type
Payload
Rocket body
Debris
Shape & HBR
Cyl, 1.4 m
Radar Cross Section
7.351 m², Large (>1 m²)

Expand to show TLE details & history
Last TLE update: 10 hours ago

TLE from 10 hours ago
0 SL-14 R/B
1 22784U 93055C   25307.75862130  .00000039  00000-0  21500-4 0  9998
2 22784  82.5469 118.6867 0022960 132.6241 238.6804 13.83538309624550
Epoch: 2025-11-03T18:12Z
TLE epoch observation values (Epoch: 2025-11-03T18:12:24.880Z)
Latitude
10.9366°
Longitude
163.76861°
Altitude
962.288 km
Speed
7.367 km/s
True Right ascension
08h 00m 30s
True Declination
10° 52' 28"
Sunlit
Object was in daylight at epoch
Visualization orbit readout
Latitude
Unknown
Longitude
Unknown
Altitude
Unknown
Speed
Unknown
Apparent Right ascension
Unknown
Apparent Declination
Unknown
Sunlit
N/A
Visualization observer readout
Local Sidereal Time
00:04:00
Azimuth
Unknown
Elevation
Unknown
Doppler factor
Unknown
Orbital elements
Apogee altitude
965.338 km
Perigee altitude
931.694 km
Semi-major axis
7,326.653 km
Eccentricity
0.0023
Inclination
82.5469°
RAAN
118.6867°
Arg. of periapsis
132.6241°
True anomaly
238.45597°
Mean anomaly
238.6804°
Eccentric anomaly
238.56815°
Mean motion
3.46087 °/min
Orbital period
104.02 mins
BSTAR
0.0000215
Loading maneuver chart data...
Computing Atmospheric mass density...
Loading historical data...
Loading historical data...
Loading historical data...
Loading historical data...
Loading historical data...
Loading historical data...
Loading historical data...
Other satellites on launch #55 in the year 1993 (1993-08-31 UTC)

Documentation

Showing up to 5 results
|